Regional Weather Roundup
Issued by NWS

Home | Current Version | Previous Version | Text Only | Print | Product List | Glossary Off
Versions: 1 2 3 4 5 6 7 8 9 10 11 12 13 14 15 16 17 18 19 20 21 22 23 24 25 26 27 28 29 30 31 32 33 34 35 36 37 38 39 40 41 42 43 44 45 46 47 48 49 50

000
ASUS45 KCYS 280710
RWRWY

WYOMING REGIONAL WEATHER ROUNDUP
NATIONAL WEATHER SERVICE CHEYENNE WY
100 AM MDT MON JUL 28 2014

NOTE:  "FAIR" INDICATES FEW OR NO CLOUDS BELOW 12,000 FEET
WITH NO SIGNIFICANT WEATHER AND/OR OBSTRUCTIONS TO VISIBILITY.

WYZ001-280800-
YELLOWSTONE NATIONAL PARK

CITY           SKY/WX    TMP DP  RH WIND       PRES   REMARKS
LK YELLOWSTONE   N/A     45  36  70 NW3       30.52R
W YELLOWSTONE  NOT AVBL

$$
WYZ002>013-054>058-071-098>099-280800-
NORTHERN WYOMING

CITY           SKY/WX    TMP DP  RH WIND       PRES   REMARKS
JACKSON        CLEAR     61  34  36 NE7       30.37S
CODY           NOT AVBL
GREYBULL       CLEAR     69  40  34 E3        30.24R
WORLAND        CLEAR     70  37  29 NE3       30.25R
SHERIDAN       CLEAR     62  44  51 CALM      30.31R
BUFFALO        CLEAR     64  39  39 S6        30.38S
GILLETTE       CLEAR     55  43  63 CALM      30.34F
HULETT         FAIR      59  50  72 MISG      30.37
NEWCASTLE      FAIR      59  43  55 CALM      30.35

$$
WYZ014>020-022>026-101>103-280800-
CENTRAL WYOMING

CITY           SKY/WX    TMP DP  RH WIND       PRES   REMARKS
BIG PINEY      CLEAR     56  29  35 N10       30.43R
PINEDALE       SUNNY     50  37  62 NW6       30.44R
DUBOIS         FAIR      54  27  35 NW8       30.46S
LANDER         CLEAR     67  29  24 SW12      30.32S
RIVERTON       CLEAR     69  33  26 NE5       30.33S
CASPER         CLEAR     65  46  50 VRB3      30.34R
DOUGLAS        CLEAR     64  48  56 SE9       30.36R

$$
WYZ021-027>030-104>119-280800-
SOUTHERN WYOMING

CITY           SKY/WX    TMP DP  RH WIND       PRES   REMARKS
EVANSTON       MOCLDY    69  25  19 E8        30.38S
KEMMERER       SUNNY     64  27  24 N13G20    30.43R
FORT BRIDGER   FAIR      68  20  16 CALM      30.41R
ROCK SPRINGS   CLEAR     67  40  37 E3        30.38S
DIXON          FAIR      63  45  51 E7        30.38S
RAWLINS        CLEAR     62  52  69 E5        30.41S
SARATOGA       FAIR      57  50  77 SE5       30.43S
LARAMIE        CLEAR     56  49  77 W5        30.46S
CHEYENNE       PTCLDY    63  47  55 S12       30.42S
TORRINGTON     PTCLDY    65  48  54 E8        30.32R
PINE BLUFFS    FAIR      66  45  45 SE12G17   30.38S

$$



USA.gov is the U.S. government's official web portal to all federal, state and local government web resources and services.